When you browse on this site, cookies collect data to enhance your experience and personalize the content and advertising you see.
Visit our Privacy Policy to learn more. By continuing to use the site, you agree to this use of cookies and data.
  • In Czech Republic
  • List of Countries
  • For 7 days
  • Water Temperature
  • Satellite Maps
  • Weather Map
  • Weather Widgets
  • user-avatar
    Login

    Hourly Weather Rog

    Today, 16 February, Saturday

    Time Temperature Precipitation Wind Pressure Humidity
    00:00 0°C° 0 mm 5 mps 754 mmHg 95%
    01:00 0°C° 0 mm 5 mps 754 mmHg 95%
    02:00 0°C° 0 mm 5 mps 754 mmHg 96%
    03:00 0°C° 0 mm 5 mps 754 mmHg 96%
    04:00 0°C° 0 mm 5 mps 754 mmHg 95%
    05:00 0°C° 0 mm 5 mps 754 mmHg 95%
    06:00 0°C° 0 mm 5 mps 753 mmHg 95%
    07:00 0°C° 0 mm 4 mps 753 mmHg 95%
    08:00 -1°C° 0 mm 4 mps 753 mmHg 94%
    09:00 0°C° 0 mm 4 mps 753 mmHg 94%
    10:00 0°C° 0 mm 4 mps 753 mmHg 93%
    11:00 0°C° 0 mm 4 mps 753 mmHg 93%
    12:00 +1°C° 0 mm 4 mps 752 mmHg 90%
    13:00 +1°C° 0 mm 4 mps 752 mmHg 88%
    14:00 +3°C° 0 mm 4 mps 752 mmHg 86%
    15:00 +1°C° 0 mm 4 mps 752 mmHg 85%
    16:00 +1°C° 0 mm 4 mps 751 mmHg 84%
    17:00 +1°C° 0 mm 4 mps 751 mmHg 82%
    18:00 0°C° 0 mm 5 mps 750 mmHg 81%
    19:00 0°C° 0 mm 5 mps 750 mmHg 80%
    20:00 0°C° 0 mm 5 mps 749 mmHg 79%
    21:00 0°C° 0 mm 5 mps 749 mmHg 78%
    22:00 0°C° 0 mm 5 mps 749 mmHg 78%
    23:00 0°C° 0 mm 5 mps 748 mmHg 78%

    Tomorrow, 17 February, Sunday

    Time Temperature Precipitation Wind Pressure Humidity
    00:00 0°C° 0 mm 5 mps 748 mmHg 79%
    01:00 0°C° 0 mm 5 mps 748 mmHg 80%
    02:00 0°C° 0 mm 5 mps 747 mmHg 81%
    03:00 0°C° 0 mm 5 mps 747 mmHg 83%
    04:00 -1°C° 0 mm 5 mps 747 mmHg 85%
    05:00 -1°C° 0 mm 5 mps 746 mmHg 87%
    06:00 -1°C° 0 mm 5 mps 746 mmHg 88%
    07:00 -1°C° 0 mm 5 mps 747 mmHg 90%
    08:00 -1°C° 0 mm 5 mps 747 mmHg 92%
    09:00 -1°C° 0 mm 5 mps 747 mmHg 92%
    10:00 0°C° 0 mm 5 mps 747 mmHg 92%
    11:00 0°C° 0 mm 5 mps 748 mmHg 91%
    12:00 0°C° 0 mm 5 mps 748 mmHg 87%
    13:00 +1°C° 0 mm 5 mps 748 mmHg 83%
    14:00 +1°C° 0 mm 5 mps 748 mmHg 79%
    15:00 0°C° 0 mm 5 mps 749 mmHg 77%
    16:00 0°C° 0 mm 5 mps 749 mmHg 75%
    17:00 -1°C° 0 mm 4 mps 749 mmHg 73%
    18:00 -1°C° 0 mm 4 mps 750 mmHg 75%
    19:00 -2°C° 0 mm 4 mps 751 mmHg 77%
    20:00 -3°C° 0 mm 4 mps 751 mmHg 79%
    21:00 -3°C° 0 mm 4 mps 751 mmHg 81%
    22:00 -2°C° 0 mm 3 mps 752 mmHg 83%
    23:00 -2°C° 0 mm 3 mps 752 mmHg 86%

    Day after tomorrow, 18 February, Monday

    Time Temperature Precipitation Wind Pressure Humidity
    00:00 -4°C° 0 mm 3 mps 753 mmHg 86%
    01:00 -4°C° 0 mm 3 mps 753 mmHg 86%
    02:00 -4°C° 0 mm 3 mps 753 mmHg 87%
    03:00 -4°C° 0 mm 3 mps 754 mmHg 87%
    04:00 -4°C° 0 mm 3 mps 754 mmHg 86%
    05:00 -4°C° 0 mm 2 mps 754 mmHg 86%
    06:00 -4°C° 0 mm 2 mps 755 mmHg 86%
    07:00 -4°C° 0 mm 2 mps 755 mmHg 85%
    08:00 -4°C° 0 mm 2 mps 755 mmHg 84%
    09:00 -3°C° 0 mm 2 mps 756 mmHg 77%
    10:00 -2°C° 0 mm 2 mps 756 mmHg 71%
    11:00 -2°C° 0 mm 2 mps 757 mmHg 64%
    12:00 -1°C° 0 mm 2 mps 757 mmHg 60%
    13:00 +1°C° 0 mm 1 mps 757 mmHg 56%
    14:00 +2°C° 0 mm 1 mps 757 mmHg 51%
    15:00 +1°C° 0 mm 1 mps 757 mmHg 55%
    16:00 +1°C° 0 mm 1 mps 757 mmHg 59%
    17:00 0°C° 0 mm 1 mps 757 mmHg 63%
    18:00 0°C° 0 mm 1 mps 757 mmHg 65%
    19:00 -3°C° 0 mm 2 mps 757 mmHg 67%
    20:00 -3°C° 0 mm 2 mps 756 mmHg 70%
    21:00 -3°C° 0 mm 2 mps 756 mmHg 70%
    22:00 -4°C° 0 mm 3 mps 756 mmHg 70%
    23:00 -4°C° 0 mm 3 mps 756 mmHg 71%

    19 February, Tuesday

    Time Temperature Precipitation Wind Pressure Humidity
    00:00 -4°C° 0 mm 3 mps 756 mmHg 70%
    01:00 -4°C° 0 mm 4 mps 755 mmHg 69%
    02:00 -4°C° 0 mm 4 mps 755 mmHg 68%
    03:00 -4°C° 0 mm 4 mps 755 mmHg 68%
    04:00 -4°C° 0 mm 4 mps 754 mmHg 68%
    05:00 -4°C° 0 mm 4 mps 754 mmHg 68%
    06:00 -3°C° 0 mm 4 mps 753 mmHg 69%
    07:00 -4°C° 0 mm 5 mps 753 mmHg 70%
    08:00 -4°C° 0 mm 5 mps 753 mmHg 71%
    09:00 -2°C° 0 mm 5 mps 752 mmHg 70%
    10:00 -1°C° 0 mm 5 mps 752 mmHg 68%
    11:00 -1°C° 0 mm 6 mps 752 mmHg 67%
    12:00 +1°C° 0 mm 6 mps 751 mmHg 67%
    13:00 +1°C° 0 mm 6 mps 750 mmHg 67%
    14:00 +2°C° 0 mm 6 mps 749 mmHg 68%
    15:00 +1°C° 0 mm 6 mps 749 mmHg 71%
    16:00 +1°C° 0 mm 5 mps 748 mmHg 75%
    17:00 0°C° 0 mm 5 mps 747 mmHg 78%
    18:00 0°C° 0 mm 5 mps 747 mmHg 80%
    19:00 0°C° 0 mm 5 mps 746 mmHg 82%
    20:00 -1°C° 0 mm 5 mps 746 mmHg 84%
    21:00 -1°C° 0 mm 5 mps 745 mmHg 86%
    22:00 -1°C° 0 mm 5 mps 745 mmHg 88%
    23:00 -1°C° 0 mm 4 mps 744 mmHg 89%

    20 February, Wednesday

    Time Temperature Precipitation Wind Pressure Humidity
    00:00 -1°C° 0.1 mm 4 mps 743 mmHg 90%
    01:00 -1°C° 0.1 mm 5 mps 743 mmHg 90%
    02:00 -1°C° 0.1 mm 5 mps 742 mmHg 91%
    03:00 0°C° 0.5 mm 5 mps 742 mmHg 91%
    04:00 0°C° 0.5 mm 5 mps 742 mmHg 91%
    05:00 0°C° 0.5 mm 5 mps 741 mmHg 91%
    06:00 0°C° 0 mm 5 mps 741 mmHg 90%
    07:00 0°C° 0 mm 5 mps 741 mmHg 89%
    08:00 0°C° 0 mm 5 mps 741 mmHg 88%
    09:00 +1°C° 0.1 mm 6 mps 741 mmHg 86%
    10:00 +1°C° 0.1 mm 6 mps 741 mmHg 84%
    11:00 +2°C° 0.1 mm 7 mps 741 mmHg 81%
    12:00 +2°C° 0.1 mm 7 mps 741 mmHg 79%
    13:00 +2°C° 0.1 mm 7 mps 741 mmHg 77%
    14:00 +1°C° 0.1 mm 8 mps 741 mmHg 74%
    15:00 +2°C° 0.1 mm 7 mps 741 mmHg 75%
    16:00 0°C° 0.1 mm 7 mps 741 mmHg 77%
    17:00 +1°C° 0.1 mm 6 mps 742 mmHg 78%
    18:00 -1°C° 0 mm 6 mps 742 mmHg 77%
    19:00 -1°C° 0 mm 6 mps 742 mmHg 75%
    20:00 -2°C° 0 mm 6 mps 742 mmHg 74%
    21:00 -2°C° 0 mm 6 mps 743 mmHg 74%
    22:00 -3°C° 0 mm 7 mps 743 mmHg 73%
    23:00 -3°C° 0 mm 7 mps 743 mmHg 73%

    21 February, Thursday

    Time Temperature Precipitation Wind Pressure Humidity
    00:00 -3°C° 0 mm 7 mps 744 mmHg 73%
    01:00 -4°C° 0 mm 7 mps 744 mmHg 73%
    02:00 -4°C° 0 mm 6 mps 744 mmHg 73%
    03:00 -4°C° 0 mm 6 mps 745 mmHg 74%
    04:00 -4°C° 0 mm 6 mps 745 mmHg 74%
    05:00 -4°C° 0 mm 6 mps 745 mmHg 74%
    06:00 -4°C° 0 mm 6 mps 746 mmHg 74%
    07:00 -4°C° 0 mm 6 mps 746 mmHg 74%
    08:00 -4°C° 0 mm 6 mps 747 mmHg 74%
    09:00 -4°C° 0 mm 6 mps 747 mmHg 71%
    10:00 -4°C° 0 mm 6 mps 747 mmHg 68%
    11:00 -4°C° 0 mm 6 mps 748 mmHg 66%
    12:00 -4°C° 0 mm 6 mps 748 mmHg 65%
    13:00 -4°C° 0 mm 5 mps 748 mmHg 64%
    14:00 -4°C° 0 mm 5 mps 748 mmHg 63%
    15:00 -4°C° 0 mm 5 mps 749 mmHg 62%
    16:00 -5°C° 0 mm 5 mps 749 mmHg 61%
    17:00 -5°C° 0 mm 5 mps 750 mmHg 61%
    18:00 -6°C° 0 mm 5 mps 750 mmHg 62%
    19:00 -5°C° 0 mm 4 mps 751 mmHg 64%
    20:00 -5°C° 0 mm 4 mps 752 mmHg 66%
    21:00 -5°C° 0 mm 4 mps 752 mmHg 64%
    22:00 -7°C° 0 mm 4 mps 753 mmHg 63%
    23:00 -7°C° 0 mm 4 mps 753 mmHg 61%
    Show more